Weather History for KEGI - November, 2012

Change the Weather History Date:

Monday, November 5, 2012

  Actual Average Record
Temperature  
Mean Temperature 60 °F -  
Max Temperature 73 °F - - ()
Min Temperature 47 °F - - ()
Degree Days  
Heating Degree Days 5    
Growing Degree Days 10 (Base 50)    
Moisture  
Dew Point 47 °F    
Average Humidity 68    
Maximum Humidity 98    
Minimum Humidity 22    
Precipitation  
Precipitation 0.03 in - - ()
Sea Level Pressure  
Sea Level Pressure 29.99 in    
Wind  
Wind Speed 4 mph (North)    
Max Wind Speed 13 mph    
Max Gust Speed 24 mph    
Visibility 10 miles    
Events Rain    
T = Trace of Precipitation, MM = Missing Value Source: NWS Daily Summary

Daily Weather History Graph

Daily Weather History Graph

Search for Another Location

Airport or City:

Trip Planner

Search our weather history database for the weather conditions in past years. The results will help you decide how hot, cold, wet, or windy it might be!

Date:

Astronomy

Nov. 05, 2012 Rise Set
Actual Time 6:04 AM CST 4:54 PM CST
Civil Twilight 5:39 AM CST 5:19 PM CST
Nautical Twilight 5:10 AM CST 5:48 PM CST
Astronomical Twilight 4:42 AM CST 6:16 PM CST
Moon 10:30 PM CST (11/5) 11:22 AM CST (11/5)
Length of Visible Light 11h 40m
Length of Day
10h 50m
Waning Gibbous, 62% of the Moon is Illuminated
Nov 5
Waning Gibbous
Nov 6
Last Quarter
Nov 13
New
Nov 20
First Quarter
Nov 28
Full

Hourly Weather History & Observations

Time (CST) Temp. Dew Point Humidity Pressure Visibility Wind Dir Wind Speed Gust Speed Precip Events Conditions
12:55 AM 55.6 °F 53.1 °F 91% 30.05 in 10.0 mi NNW 5.8 mph - N/A   Clear
1:55 AM 55.2 °F 52.3 °F 90% 30.05 in 10.0 mi North 5.8 mph - N/A   Clear
2:55 AM 53.8 °F 50.9 °F 90% 30.05 in 10.0 mi North 3.5 mph - N/A   Clear
3:55 AM 51.8 °F 49.6 °F 92% 30.05 in 10.0 mi North 3.5 mph - N/A   Clear
4:55 AM 48.9 °F 47.7 °F 95% 30.07 in 10.0 mi North 5.8 mph - N/A   Clear
5:55 AM 47.1 °F 46.6 °F 98% 30.08 in 10.0 mi North 3.5 mph - N/A   Clear
6:55 AM 49.6 °F 48.0 °F 94% 30.08 in 10.0 mi North 3.5 mph - N/A   Clear
7:55 AM 53.8 °F 46.2 °F 76% 30.09 in 10.0 mi NE 5.8 mph - N/A   Clear
8:55 AM 59.4 °F 44.1 °F 57% 30.08 in 10.0 mi NE 4.6 mph - N/A   Partly Cloudy
9:55 AM 64.2 °F 41.0 °F 43% 30.08 in 10.0 mi ENE 6.9 mph - N/A   Partly Cloudy
10:55 AM 68.4 °F 33.8 °F 28% 30.05 in 10.0 mi Variable 3.5 mph - N/A   Partly Cloudy
11:55 AM 71.2 °F 34.0 °F 25% 30.02 in 10.0 mi Calm Calm - N/A   Partly Cloudy
12:55 PM 72.3 °F 33.3 °F 24% 29.99 in 10.0 mi NW 4.6 mph - N/A   Partly Cloudy
1:55 PM 73.4 °F 32.4 °F 22% 29.97 in 10.0 mi South 3.5 mph - N/A   Scattered Clouds
2:55 PM 73.9 °F 34.2 °F 23% 29.97 in 10.0 mi Calm Calm - N/A   Partly Cloudy
3:55 PM 71.8 °F 36.3 °F 27% 29.97 in 10.0 mi NW 3.5 mph - N/A   Mostly Cloudy
4:55 PM 68.4 °F 41.0 °F 37% 29.99 in 10.0 mi WNW 3.5 mph - N/A   Mostly Cloudy
5:55 PM 64.4 °F 44.4 °F 48% 29.99 in 10.0 mi NNW 5.8 mph - N/A   Mostly Cloudy
6:20 PM 64.4 °F 44.6 °F 49% 29.98 in 10.0 mi North 3.5 mph - N/A Rain Light Rain
6:47 PM 62.6 °F 44.6 °F 52% 29.96 in 10.0 mi SE 4.6 mph - N/A   Mostly Cloudy
6:55 PM 62.2 °F 43.7 °F 51% 29.96 in 10.0 mi ESE 4.6 mph - N/A   Light Drizzle
7:31 PM 62.6 °F 44.6 °F 52% 29.98 in 10.0 mi SW 4.6 mph - N/A Rain Light Rain
7:55 PM 57.2 °F 53.1 °F 86% 29.97 in 9.0 mi Calm Calm - 0.02 in Rain Light Rain
8:16 PM 57.2 °F 53.6 °F 88% 29.95 in 10.0 mi South 4.6 mph - N/A   Mostly Cloudy
8:27 PM 57.2 °F 55.4 °F 94% 29.96 in 10.0 mi Variable 3.5 mph - N/A Rain Light Rain
8:49 PM 57.2 °F 53.6 °F 88% 29.95 in 10.0 mi ESE 3.5 mph - N/A   Mostly Cloudy
8:55 PM 56.5 °F 54.7 °F 94% 29.96 in 10.0 mi SE 4.6 mph - 0.00 in   Mostly Cloudy
9:09 PM 57.2 °F 53.6 °F 88% 29.96 in 10.0 mi NW 4.6 mph - N/A   Light Drizzle
9:23 PM 57.2 °F 53.6 °F 88% 29.95 in 10.0 mi Calm Calm - N/A   Mostly Cloudy
9:55 PM 55.9 °F 53.6 °F 92% 29.93 in 10.0 mi Calm Calm - 0.00 in   Mostly Cloudy
10:55 PM 56.5 °F 53.6 °F 90% 29.91 in 10.0 mi Calm Calm - N/A   Overcast
11:16 PM 57.2 °F 50.0 °F 77% 29.92 in 10.0 mi North 12.7 mph 24.2 mph N/A Rain Light Rain Showers
11:36 PM 57.2 °F 50.0 °F 77% 29.93 in 10.0 mi NNW 5.8 mph - N/A   Overcast
11:40 PM 57.2 °F 50.0 °F 77% 29.93 in 9.0 mi WNW 3.5 mph - N/A Rain Light Rain Showers
11:55 PM 55.9 °F 52.3 °F 88% 29.94 in 7.0 mi Calm Calm - 0.01 in Rain Light Rain